KLM82W EHAM-LIMJ

Flight info

Callsign KLM82W
Flight time N/A
Altitude 33000
Route WOODY N872 NIK M624 RITAX DCT SUTAL DCT GTQ DCT DEVDI DCT ODINA DCT SRN DCT VOG
Aircraft A321/M-SDE3FGHIRWY/LB1

Departure

Time 2026-04-27 18:58
Airport Amsterdam Airport Schiphol (EHAM)

Arrival

Time N/A
Airport Genoa Cristoforo Colombo Airport (LIMJ)
Time Latitude Longitude Altitude Speed Heading
2026-04-27 18:36 52.30898 4.77303 -1 ft 0 kts
2026-04-27 18:40 52.30897 4.77303 -1 ft 0 kts
2026-04-27 18:40 52.30886 4.77302 -1 ft 3 kts 359°
2026-04-27 18:40 52.30866 4.77304 -1 ft 3 kts 358°
2026-04-27 18:41 52.30852 4.77303 -1 ft 2 kts 55°
2026-04-27 18:41 52.30845 4.77283 -1 ft 3 kts 81°
2026-04-27 18:41 52.30843 4.77267 -1 ft 0 kts 78°
2026-04-27 18:43 52.30844 4.77282 -1 ft 3 kts 88°
2026-04-27 18:44 52.30840 4.77328 -1 ft 5 kts 96°
2026-04-27 18:44 52.30837 4.77403 -1 ft 8 kts 94°
2026-04-27 18:44 52.30833 4.77501 -1 ft 9 kts 94°
2026-04-27 18:44 52.30837 4.77565 -1 ft 3 kts 70°
2026-04-27 18:45 52.30857 4.77598 -1 ft 6 kts 28°
2026-04-27 18:45 52.30907 4.77611 -1 ft 9 kts
2026-04-27 18:45 52.30985 4.77618 -1 ft 13 kts
2026-04-27 18:45 52.31088 4.77627 -1 ft 17 kts
2026-04-27 18:46 52.31214 4.77639 -1 ft 20 kts
2026-04-27 18:46 52.31356 4.77653 -1 ft 20 kts
2026-04-27 18:46 52.31441 4.77642 -1 ft 18 kts 340°
2026-04-27 18:46 52.31542 4.77508 -1 ft 20 kts 311°
2026-04-27 18:47 52.31574 4.77288 -1 ft 21 kts 266°
2026-04-27 18:47 52.31566 4.77052 -1 ft 19 kts 266°
2026-04-27 18:47 52.31559 4.76827 -1 ft 21 kts 269°
2026-04-27 18:47 52.31548 4.76590 -1 ft 21 kts 267°
2026-04-27 18:48 52.31541 4.76343 -1 ft 22 kts 268°
2026-04-27 18:48 52.31534 4.76090 -1 ft 21 kts 268°
2026-04-27 18:48 52.31526 4.75873 -1 ft 17 kts 265°
2026-04-27 18:48 52.31514 4.75697 -1 ft 14 kts 263°
2026-04-27 18:49 52.31510 4.75561 -1 ft 10 kts 267°
2026-04-27 18:49 52.31507 4.75444 -1 ft 11 kts 268°
2026-04-27 18:49 52.31491 4.74861 -1 ft 4 kts 259°
2026-04-27 18:50 52.31487 4.74703 -1 ft 23 kts 267°
2026-04-27 18:50 52.31476 4.74419 -1 ft 23 kts 266°
2026-04-27 18:50 52.31556 4.74297 -1 ft 19 kts
2026-04-27 18:50 52.31730 4.74316 -1 ft 29 kts
2026-04-27 18:51 52.31928 4.74331 -1 ft 25 kts
2026-04-27 18:51 52.32030 4.74217 -1 ft 20 kts 275°
2026-04-27 18:51 52.32038 4.74001 -2 ft 19 kts 273°
2026-04-27 18:51 52.32045 4.73799 -1 ft 17 kts 273°
2026-04-27 18:52 52.32051 4.73618 -1 ft 15 kts 272°
2026-04-27 18:52 52.32060 4.73452 -1 ft 14 kts 283°
2026-04-27 18:52 52.32116 4.73314 -1 ft 16 kts 320°
2026-04-27 18:53 52.32342 4.73004 -1 ft 22 kts 319°
2026-04-27 18:53 52.32455 4.72839 -1 ft 21 kts 319°
2026-04-27 18:53 52.32563 4.72686 -1 ft 20 kts 319°
2026-04-27 18:53 52.32668 4.72535 -1 ft 19 kts 317°
2026-04-27 18:54 52.32757 4.72375 -1 ft 19 kts 311°
2026-04-27 18:54 52.32841 4.72219 -1 ft 18 kts 311°
2026-04-27 18:54 52.32928 4.72056 -1 ft 23 kts 311°
2026-04-27 18:54 52.33054 4.71827 -1 ft 30 kts 312°
2026-04-27 18:55 52.33149 4.71594 -1 ft 22 kts 274°
2026-04-27 18:55 52.33070 4.71409 -1 ft 20 kts 220°
2026-04-27 18:55 52.32969 4.71264 -1 ft 18 kts 221°
2026-04-27 18:55 52.32880 4.71132 -1 ft 13 kts 229°
2026-04-27 18:56 52.32862 4.71067 -1 ft 0 kts 259°
2026-04-27 18:56 52.32862 4.71066 -1 ft 0 kts 259°
2026-04-27 18:57 52.32862 4.71064 -1 ft 1 kts 259°
2026-04-27 18:57 52.32861 4.70988 -2 ft 11 kts 273°
2026-04-27 18:57 52.32901 4.70897 -2 ft 12 kts 348°
2026-04-27 18:57 52.33066 4.70910 -4 ft 49 kts
2026-04-27 18:58 52.33627 4.70962 1 ft 110 kts
2026-04-27 18:58 52.34207 4.71014 -3 ft 142 kts
2026-04-27 18:58 52.35715 4.71143 299 ft 169 kts
2026-04-27 18:58 52.36881 4.71240 927 ft 168 kts
2026-04-27 18:59 52.38074 4.71354 1320 ft 180 kts
2026-04-27 18:59 52.39396 4.71516 1442 ft 201 kts
2026-04-27 18:59 52.40780 4.72130 1713 ft 215 kts 33°
2026-04-27 18:59 52.41823 4.73845 2383 ft 214 kts 60°
2026-04-27 19:00 52.42251 4.76196 3002 ft 221 kts 89°
2026-04-27 19:00 52.41858 4.78651 3629 ft 230 kts 120°
2026-04-27 19:00 52.40675 4.80464 4209 ft 241 kts 154°
2026-04-27 19:00 52.39031 4.81097 4837 ft 247 kts 171°
2026-04-27 19:01 52.37323 4.81529 5507 ft 249 kts 171°
2026-04-27 19:01 52.35614 4.81976 6279 ft 248 kts 171°
2026-04-27 19:01 52.33903 4.82428 6970 ft 250 kts 171°
2026-04-27 19:01 52.32135 4.82911 7329 ft 269 kts 170°
2026-04-27 19:02 52.30232 4.83452 7730 ft 282 kts 170°
2026-04-27 19:02 52.28287 4.84017 8432 ft 286 kts 170°
2026-04-27 19:02 52.26328 4.84586 9207 ft 286 kts 172°
2026-04-27 19:02 52.24346 4.84768 9961 ft 286 kts 181°
2026-04-27 19:03 52.22363 4.84729 10555 ft 293 kts 184°
2026-04-27 19:03 52.20222 4.84676 10695 ft 316 kts 182°
2026-04-27 19:03 52.17950 4.84621 10818 ft 337 kts 182°
2026-04-27 19:03 52.16375 4.84583 10990 ft 346 kts 182°
2026-04-27 19:04 52.13140 4.84512 11684 ft 355 kts 181°
2026-04-27 19:04 52.10661 4.84462 12285 ft 359 kts 181°
2026-04-27 19:04 52.08150 4.84415 12894 ft 363 kts 182°
2026-04-27 19:04 52.05614 4.84367 13504 ft 367 kts 182°
2026-04-27 19:05 52.03058 4.84077 14091 ft 370 kts 191°
2026-04-27 19:05 52.00568 4.83027 14630 ft 371 kts 202°
2026-04-27 19:05 51.98218 4.81299 15184 ft 372 kts 208°
2026-04-27 19:05 51.95889 4.79455 15779 ft 374 kts 208°
2026-04-27 19:06 51.93544 4.77611 16339 ft 376 kts 208°
2026-04-27 19:06 51.91185 4.75759 16900 ft 378 kts 208°
2026-04-27 19:06 51.88814 4.73905 17469 ft 379 kts 208°
2026-04-27 19:06 51.86428 4.72045 18030 ft 381 kts 208°
2026-04-27 19:07 51.84036 4.70182 18568 ft 383 kts 208°
2026-04-27 19:07 51.81632 4.68310 19043 ft 384 kts 208°
2026-04-27 19:07 51.80037 4.67068 19354 ft 385 kts 208°